Find Starlink 3582

NORAD ID: 51873 Int'l Des: 2022-022 Owner: SPXS Country: US Constellation: starlink operational
LEOCIRCULAR

現在のビュー

3D地球を読み込み中...

About Starlink 3582

Starlink 3582 (NORAD 51873) is a starlink constellation satellite (v1.5) launched Mar 3, 2022 by SPXS of US. It operates in LEO, CIRCULAR orbit with a mass of 297.00 kg.

Starlink 3582について

説明を読み込み中...

次回通過

Passes for default location (London). Set your location on the main map for personalized predictions.

高度履歴

Loading altitude history...

軌道要素

1 51873U 22022X 26171.40614722 .00024768 00000-0 10588-2 0 9996
2 51873 53.2030 256.0877 0001577 217.1888 142.9001 15.22728504238791
Epoch: Jun 20, 2026 • Age: 40 hours

現在のステータス

高度 501.4 km
速度 7.62 km/s
衛星直下点 41.22°N, 92.42°E
打ち上げ日 Mar 3, 2022
運用期間 4.3 years
タイプ internet

技術仕様

分類 Payload
質量 297.00 kg
乾燥質量 275.00 kg
総質量 297.00 kg
長さ 0.20 m
直径 2.80 m
スパン 9.00 m
形状 Box + pan
製造者 SPXS
バスタイプ Starlink
フェーズステータス In Orbit
所有者/国 SPXS/US

Most Searched